Weather History for VTSP - July, 2012

Change the Weather History Date:

Sunday, July 15, 2012

  Actual Average Record
Temperature  
Mean Temperature 82 °F -  
Max Temperature 90 °F 88 °F 93 °F (2002)
Min Temperature 75 °F 78 °F 73 °F (2015)
Cooling Degree Days 18    
Growing Degree Days 32 (Base 50)    
Moisture  
Dew Point 74 °F    
Average Humidity 78    
Maximum Humidity 94    
Minimum Humidity 55    
Precipitation  
Precipitation 0.00 in 0.36 in - ()
Sea Level Pressure  
Sea Level Pressure 29.82 in    
Wind  
Wind Speed 2 mph ()    
Max Wind Speed 10 mph    
Max Gust Speed -    
Visibility 5.5 miles    
Events      
Averages and records for this station are not official NWS values.
T = Trace of Precipitation, MM = Missing Value Source: Averaged Metar Reports

Daily Weather History Graph

Daily Weather History Graph

Search for Another Location

Airport or City:

Trip Planner

Search our weather history database for the weather conditions in past years. The results will help you decide how hot, cold, wet, or windy it might be!

Date:

Astronomy

Jul. 15, 2012 Rise Set
Actual Time 6:16 AM ICT 6:49 PM ICT
Civil Twilight 5:53 AM ICT 7:11 PM ICT
Nautical Twilight 5:27 AM ICT 7:38 PM ICT
Astronomical Twilight 5:00 AM ICT 8:04 PM ICT
Moon 2:48 AM ICT (7/15) 3:38 PM ICT (7/15)
Length of Visible Light 13h 18m
Length of Day
12h 32m
Waning Crescent, 15% of the Moon is Illuminated
Jul 15
Waning Crescent
Jul 19
New
Jul 26
First Quarter
Aug 2
Full
Aug 10
Last Quarter

Hourly Weather History & Observations

Time (ICT) Temp. Heat Index Dew Point Humidity Pressure Visibility Wind Dir Wind Speed Gust Speed Precip Events Conditions
12:00 AM 77.0 °F - 75.2 °F 94% 29.86 in 5.0 mi Calm Calm - N/A   Mostly Cloudy
12:30 AM 77.0 °F - 75.2 °F 94% 29.83 in 5.0 mi Calm Calm - N/A   Mostly Cloudy
1:00 AM 79 °F - 76 °F 89% 29.80 in 6 mi Calm Calm - -   Scattered Clouds
1:00 AM 77.0 °F - 75.2 °F 94% 29.83 in 5.0 mi Calm Calm - N/A   Mostly Cloudy
1:30 AM 77.0 °F - 75.2 °F 94% 29.83 in 5.0 mi Calm Calm - N/A   Mostly Cloudy
2:00 AM 77.0 °F - 75.2 °F 94% 29.83 in 5.0 mi Calm Calm - N/A   Mostly Cloudy
2:30 AM 77.0 °F - 73.4 °F 89% 29.80 in 5.0 mi Calm Calm - N/A   Mostly Cloudy
3:00 AM 75.2 °F - 73.4 °F 94% 29.80 in 5.0 mi Calm Calm - N/A   Mostly Cloudy
4:00 AM 75.2 °F - 73.4 °F 94% 29.80 in 5.0 mi Calm Calm - N/A   Mostly Cloudy
4:30 AM 75.2 °F - 73.4 °F 94% 29.80 in 5.0 mi Calm Calm - N/A   Mostly Cloudy
5:00 AM 75.2 °F - 73.4 °F 94% 29.80 in 5.0 mi Calm Calm - N/A   Mostly Cloudy
5:30 AM 75.2 °F - 73.4 °F 94% 29.80 in 5.0 mi Calm Calm - N/A   Mostly Cloudy
6:00 AM 75.2 °F - 73.4 °F 94% 29.83 in 5.0 mi Calm Calm - N/A   Mostly Cloudy
6:30 AM 77.0 °F - 73.4 °F 89% 29.83 in 5.0 mi Calm Calm - N/A   Scattered Clouds
7:00 AM 77 °F - 74 °F 89% 29.79 in 6 mi Calm Calm - -   Scattered Clouds
7:00 AM 77.0 °F - 75.2 °F 94% 29.83 in 5.0 mi Calm Calm - N/A   Mostly Cloudy
7:30 AM 78.8 °F - 75.2 °F 89% 29.86 in 5.6 mi Calm Calm - N/A   Mostly Cloudy
8:00 AM 80.6 °F 87.1 °F 77.0 °F 89% 29.86 in 5.6 mi Calm Calm - N/A   Mostly Cloudy
9:00 AM - - - N/A% - 6.2 mi WSW 9.2 mph - N/A   Mostly Cloudy
9:30 AM 84.2 °F 92.3 °F 75.2 °F 74% 29.86 in 5.6 mi Calm Calm - N/A   Mostly Cloudy
10:00 AM 87.8 °F 97.6 °F 75.2 °F 66% 29.86 in 5.6 mi Calm Calm - N/A   Mostly Cloudy
10:30 AM 86.0 °F 90.4 °F 69.8 °F 58% 29.86 in 5.6 mi West 6.9 mph - N/A   Mostly Cloudy
11:00 AM 87.8 °F 93.8 °F 71.6 °F 58% 29.83 in 5.6 mi West 4.6 mph - N/A   Mostly Cloudy
11:30 AM 87.8 °F 93.8 °F 71.6 °F 58% 29.83 in 5.6 mi West 9.2 mph - N/A   Mostly Cloudy
12:00 PM 87.8 °F 95.6 °F 73.4 °F 62% - 5.6 mi West 9.2 mph - N/A   Mostly Cloudy
12:30 PM 87.8 °F 93.8 °F 71.6 °F 58% 29.83 in 5.6 mi WNW 6.9 mph - N/A   Mostly Cloudy
1:00 PM 87 °F - 75 °F 61% 29.80 in 6 mi West 3.5 mph - -   Scattered Clouds
1:00 PM 87.8 °F 93.8 °F 71.6 °F 58% 29.83 in 5.6 mi West 8.1 mph - N/A   Mostly Cloudy
1:30 PM 87.8 °F 93.8 °F 71.6 °F 58% 29.80 in 5.6 mi West 10.4 mph - N/A   Mostly Cloudy
2:00 PM 89.6 °F 96.2 °F 71.6 °F 55% 29.80 in 5.6 mi West 9.2 mph - N/A   Mostly Cloudy
2:30 PM 87.8 °F 93.8 °F 71.6 °F 58% 29.80 in 5.6 mi West 9.2 mph - N/A   Mostly Cloudy
3:00 PM - - - N/A% - 6.2 mi WSW 9.2 mph - N/A   Mostly Cloudy
3:30 PM 89.6 °F 96.2 °F 71.6 °F 55% 29.77 in 5.6 mi WNW 5.8 mph - N/A   Mostly Cloudy
4:00 PM 89.6 °F 99.8 °F 75.2 °F 62% 29.77 in 5.6 mi ENE 9.2 mph - N/A   Mostly Cloudy
4:30 PM 87.8 °F 95.6 °F 73.4 °F 62% 29.77 in 5.6 mi East 6.9 mph - N/A   Mostly Cloudy
5:00 PM 87.8 °F 92.6 °F 69.8 °F 55% 10.08 in 5.6 mi West 8.1 mph - N/A   Mostly Cloudy
6:30 PM 78.8 °F - 71.6 °F 78% 29.77 in 5.6 mi WNW 5.8 mph - N/A   Mostly Cloudy
7:00 PM 86 °F - 74 °F 61% 29.77 in 6 mi Calm Calm - -   Scattered Clouds
7:00 PM 84.2 °F 89.6 °F 71.6 °F 66% 29.80 in 5.6 mi WNW 5.8 mph - N/A   Mostly Cloudy
7:30 PM 80.6 °F 85.4 °F 73.4 °F 79% 29.80 in 5.6 mi Variable 2.3 mph - N/A   Mostly Cloudy
8:00 PM 80.6 °F 85.4 °F 73.4 °F 79% 29.80 in 5.6 mi Calm Calm - N/A   Mostly Cloudy
8:30 PM 82.4 °F 88.2 °F 73.4 °F 74% 29.83 in 5.6 mi NW 4.6 mph - N/A   Mostly Cloudy
9:00 PM 78.8 °F - 73.4 °F 83% 29.83 in 5.6 mi Calm Calm - N/A   Scattered Clouds
9:30 PM 78.8 °F - 73.4 °F 83% 29.86 in 5.6 mi Calm Calm - N/A   Scattered Clouds
10:00 PM 78.8 °F - 75.2 °F 89% 29.86 in 5.6 mi NW 3.5 mph - N/A   Scattered Clouds
10:30 PM 78.8 °F - 73.4 °F 83% 29.86 in 5.6 mi Calm Calm - N/A   Mostly Cloudy
11:00 PM 77.0 °F - 75.2 °F 94% 29.89 in 5.6 mi Calm Calm - N/A   Mostly Cloudy
11:30 PM 77.0 °F - 75.2 °F 94% 29.89 in 5.6 mi Calm Calm - N/A   Mostly Cloudy